Richmond West, FL

11:06 AM EDT on August 22, 2017 (GMT -0400)
JA Richmond West | | Change Station

Elev 7 ft 25.61 °N, 80.43 °W | Updated 1 second ago

Mostly Cloudy
Mostly Cloudy
87.4 °F
Feels Like 99 °F
N
3.5
Wind Variable Wind from ENE
Gusts 3.5 mph

Today
High -- | Low -- °F
--% Chance of Precip.
Yesterday
High -- | Low -- °F
Precip. -- in
Pressure 30.02 in
Visibility 10.0 miles
Clouds Scattered Clouds 2400 ft
Mostly Cloudy 3300 ft
Mostly Cloudy 4100 ft
Heat Index 99 °F
Dew Point 77 °F
Humidity 71%
Rainfall 0.95 in
Snow Depth Not available.
6:58 AM 7:50 PM
New Moon, 1% visible
METAR KTMB 221453Z 10009KT 10SM SCT024 BKN033 BKN041 32/25 A3002 RMK AO2 SLP165 T03170250 53001
Pressure 30.02 in
Visibility 10.0 miles
Clouds Scattered Clouds 2400 ft
Mostly Cloudy 3300 ft
Mostly Cloudy 4100 ft
Heat Index 99 °F
Dew Point 77 °F
Humidity 71%
Rainfall 0.95 in
Snow Depth Not available.
6:58 AM 7:50 PM
New Moon, 1% visible
METAR KTMB 221453Z 10009KT 10SM SCT024 BKN033 BKN041 32/25 A3002 RMK AO2 SLP165 T03170250 53001

Get Severe Weather Alerts

Thanks for signing up!

Be on the lookout for a verification email in your inbox.

You'll start receiving the daily forecast at 6 AM.

×

10-Day Weather Forecast

Almanac

Astronomy

Aug. 22, 2017 Rise Set
Actual Time
Civil Twilight
Nautical Twilight
Astronomical Twilight
Moon
Length of Visible Light
Length of Day
Tomorrow will be .
, % of the Moon is Illuminated

Today's Extremes

State Highs State Lows

Community

WunderPhotos

Category 6

Welcome to Category 6. This is the collective home for Weather Underground's featured writeups by Dr. Jeff Masters (right), Bob Henson (left), Chris Burt, and other regular contributors.

Nearby

Air Quality

  Air Quality AQ Index Pollutant
Not available.

Snow Depth

Station Depth Elevation

Earthquake Activity

City Distance Mag. Time & Date
Minimum magnitude displayed is 2.5.

Coastal Water Temperatures

Place Temperature

Stations

Nearby Weather Stations

Station Location Temp. Windchill Dew Point Humidity Wind Precip. Elev Updated Type
                   

Watches & Warnings

There are currently no watches in effect.